World > North America > United States > Texas

Odds, Texas Regional Weather

Lat: 31.41N, Lon: 96.72W
Wx Zone: TXZ161Web Search
Odds Weather Warning NWS WEATHER ALERT FOR THE ODDS, TX AREA - Issued: 310 PM CDT Fri Apr 16 2021 Odds Weather Warning  

Pass this page to a friend. Tell them to point their camera at the QR Code near the bottom of this page.

Feedback


°F Click to change Odds hourly weather to Imperial units.Click to change Odds hourly weather to Metric units. °C
Odds Weather Map
UTC Time: 4/17/2021, 00:08
Your Time:

Odds, TX Regional Weather

Expires:202104170100;;663812
ASUS44 KFWD 170003
RWRTX 
NORTH TEXAS HOURLY WEATHER ROUNDUP
NATIONAL WEATHER SERVICE FORT WORTH TX
700 PM CDT FRI APR 16 2021

NOTE: "FAIR" INDICATES FEW OR NO CLOUDS BELOW 12,000 FEET WITH NO
SIGNIFICANT WEATHER AND/OR OBSTRUCTIONS TO VISIBILITY.


TXZ143>147-156>162-174-175-170100-
CENTRAL TEXAS
  
CITY           SKY/WX    TMP DP  RH WIND       PRES   REMARKS
WACO           CLOUDY    64  60  87 N7        29.85R                  
6HR MIN TEMP:  62; 6HR MAX TEMP:  66; 6HR PCP:  0.01;                

WACO-TSTC      CLOUDY    63  61  94 N6        29.84R                  
WACO-MCGREGOR  CLOUDY    62  60  93 N8        29.86R                  
6HR MIN TEMP:  62; 6HR MAX TEMP:  65;                                

HILLSBORO      LGT RAIN  61  61 100 N7        29.86R                  
6HR MIN TEMP:  61; 6HR MAX TEMP:  64;                                

CORSICANA      CLOUDY    61  58  90 N6        29.86R                  
6HR MIN TEMP:  58; 6HR MAX TEMP:  63; 6HR PCP:  0.02;                

MEXIA          CLOUDY    62  60  94 N6        29.84R                  
6HR MIN TEMP:  60; 6HR MAX TEMP:  62; 6HR PCP:  0.04;                

HEARNE         CLOUDY    64  61  90 CALM      29.84R                  
6HR MIN TEMP:  64; 6HR MAX TEMP:  68; 6HR PCP:  0.14;                

TEMPLE         CLOUDY    63  61  93 NW12G22   29.85R                  
6HR MIN TEMP:  62; 6HR MAX TEMP:  65; 6HR PCP:  0.01;                

KILLEEN        LGT RAIN  61  57  88 N23G31    29.84R                  
FORT HOOD      CLOUDY    62  57  86 N17G25    29.86R                  
6HR MIN TEMP:  62; 6HR MAX TEMP:  67; 6HR PCP:  0.01;                

GATESVILLE     PTSUNNY   61  57  88 N12       29.89R                  
HAMILTON       CLOUDY    58  57  97 N17G23    29.91R                  
6HR MIN TEMP:  58; 6HR MAX TEMP:  65;                                

$$


SKY/WX - Weather  TMP - Temperature  DP - Dew Point  RH - Relative Humidity
WIND - Wind Direction/Speed PRES - Barometric Pressure VSB - Visibility
WCI - Wind Chill Index E13G22 Wind - East Wind 13 mph/Gusts of 22 mph